21-02-2022, 00:00:00,    258,    4.0,    2.5,   0.00,   0.00, 1000.8,   65.1, -999.0
21-02-2022, 00:00:12,    278,    6.5,    2.6,   0.00,   0.00, 1000.8,   65.0, -999.0
21-02-2022, 00:00:20,    253,    4.6,    2.6,   0.00,   0.00, 1000.8,   64.9, -999.0
21-02-2022, 00:00:30,    288,    6.2,    2.6,   0.00,   0.00, 1000.8,   65.0, -999.0
21-02-2022, 00:00:39,    263,    3.2,    2.6,   0.00,   0.00, 1000.7,   64.9, -999.0
21-02-2022, 00:00:50,    235,    3.2,    2.6,   0.00,   0.00, 1000.8,   65.0, -999.0
21-02-2022, 00:00:59,    263,    2.8,    2.6,   0.00,   0.00, 1000.8,   65.1, -999.0
21-02-2022, 00:01:09,    265,    6.3,    2.5,   0.00,   0.00, 1000.8,   65.3, -999.0
21-02-2022, 00:01:19,    341,    5.1,    2.6,   0.00,   0.00, 1000.8,   65.2, -999.0
21-02-2022, 00:01:29,    230,    3.2,    2.6,   0.00,   0.00, 1000.8,   65.2, -999.0
21-02-2022, 00:01:39,    237,    1.5,    2.5,   0.00,   0.00, 1000.8,   65.3, -999.0
21-02-2022, 00:01:49,    224,    4.3,    2.6,   0.00,   0.00, 1000.8,   65.4, -999.0
21-02-2022, 00:01:59,    247,    5.6,    2.6,   0.00,   0.00, 1000.8,   65.6, -999.0
21-02-2022, 00:02:09,    245,    7.6,    2.6,   0.00,   0.00, 1000.8,   65.4, -999.0
21-02-2022, 00:02:19,    240,    4.2,    2.6,   0.00,   0.00, 1000.8,   65.3, -999.0
21-02-2022, 00:02:29,    260,    2.3,    2.5,   0.00,   0.00, 1000.7,   65.1, -999.0
21-02-2022, 00:02:39,    235,    4.3,    2.6,   0.00,   0.00, 1000.8,   65.2, -999.0
21-02-2022, 00:02:49,    263,    6.1,    2.6,   0.00,   0.00, 1000.8,   65.2, -999.0
21-02-2022, 00:02:59,    271,    4.3,    2.5,   0.00,   0.00, 1000.8,   64.9, -999.0
21-02-2022, 00:03:09,    293,    4.3,    2.5,   0.00,   0.00, 1000.8,   65.0, -999.0
21-02-2022, 00:03:19,    244,    4.4,    2.6,   0.00,   0.00, 1000.8,   64.8, -999.0
21-02-2022, 00:03:29,    251,    6.7,    2.6,   0.00,   0.00, 1000.8,   64.8, -999.0
21-02-2022, 00:03:39,    259,    4.1,    2.6,   0.00,   0.00, 1000.8,   64.7, -999.0
21-02-2022, 00:03:48,    271,    9.4,    2.6,   0.00,   0.00, 1000.8,   64.7, -999.0
21-02-2022, 00:03:59,    286,    4.1,    2.6,   0.00,   0.00, 1000.8,   64.5, -999.0
21-02-2022, 00:04:09,    243,    1.4,    2.7,   0.00,   0.00, 1000.8,   64.6, -999.0
21-02-2022, 00:04:18,    275,    6.3,    2.6,   0.00,   0.00, 1000.8,   64.6, -999.0
21-02-2022, 00:04:29,    258,    5.0,    2.7,   0.00,   0.00, 1000.8,   64.5, -999.0
21-02-2022, 00:04:38,    252,    4.4,    2.7,   0.00,   0.00, 1000.8,   64.3, -999.0
21-02-2022, 00:04:48,    275,    7.4,    2.6,   0.00,   0.00, 1000.8,   64.2, -999.0
21-02-2022, 00:04:58,    237,    6.6,    2.6,   0.00,   0.00, 1000.8,   64.3, -999.0
21-02-2022, 00:05:08,    266,    4.6,    2.6,   0.00,   0.00, 1000.8,   64.2, -999.0
21-02-2022, 00:05:18,    271,    6.6,    2.6,   0.00,   0.00, 1000.8,   64.3, -999.0
21-02-2022, 00:05:28,    257,    5.8,    2.6,   0.00,   0.00, 1000.8,   64.2, -999.0
21-02-2022, 00:05:38,    264,    3.4,    2.6,   0.00,   0.00, 1000.8,   64.2, -999.0
21-02-2022, 00:05:48,    248,    3.6,    2.7,   0.00,   0.00, 1000.8,   64.3, -999.0
21-02-2022, 00:05:58,    249,    1.4,    2.6,   0.00,   0.00, 1000.8,   64.3, -999.0
21-02-2022, 00:06:08,    257,    2.1,    2.6,   0.00,   0.00, 1000.9,   64.4, -999.0
21-02-2022, 00:06:18,    231,    3.2,    2.6,   0.00,   0.00, 1000.8,   64.4, -999.0
21-02-2022, 00:06:28,    238,    2.2,    2.6,   0.00,   0.00, 1000.9,   64.5, -999.0
21-02-2022, 00:06:38,    228,    1.6,    2.5,   0.00,   0.00, 1000.8,   64.6, -999.0
21-02-2022, 00:06:48,    222,    6.1,    2.5,   0.00,   0.00, 1000.8,   64.6, -999.0
21-02-2022, 00:06:58,    285,    3.7,    2.6,   0.00,   0.00, 1000.8,   64.6, -999.0
21-02-2022, 00:07:08,    284,    5.8,    2.6,   0.00,   0.00, 1000.9,   64.5, -999.0
21-02-2022, 00:07:18,    264,    3.9,    2.6,   0.00,   0.00, 1000.8,   64.5, -999.0
21-02-2022, 00:07:27,    233,    3.3,    2.5,   0.00,   0.00, 1000.8,   64.4, -999.0
21-02-2022, 00:07:38,    242,    5.2,    2.6,   0.00,   0.00, 1000.8,   64.4, -999.0
21-02-2022, 00:07:48,    244,    3.9,    2.6,   0.00,   0.00, 1000.9,   64.5, -999.0
21-02-2022, 00:07:57,    227,    4.8,    2.7,   0.00,   0.00, 1000.9,   64.4, -999.0
21-02-2022, 00:08:07,    241,    3.2,    2.6,   0.00,   0.00, 1000.9,   64.5, -999.0
21-02-2022, 00:08:18,    252,    3.9,    2.6,   0.00,   0.00, 1000.8,   64.5, -999.0
21-02-2022, 00:08:27,    282,    1.8,    2.6,   0.00,   0.00, 1000.8,   64.5, -999.0
21-02-2022, 00:08:37,    266,    4.7,    2.6,   0.00,   0.00, 1000.8,   64.5, -999.0
21-02-2022, 00:08:47,    267,    3.9,    2.6,   0.00,   0.00, 1000.8,   64.5, -999.0
21-02-2022, 00:08:57,    235,    4.1,    2.6,   0.00,   0.00, 1000.8,   64.4, -999.0
21-02-2022, 00:09:07,    270,    3.4,    2.6,   0.00,   0.00, 1000.8,   64.5, -999.0
21-02-2022, 00:09:17,    276,    6.5,    2.6,   0.00,   0.00, 1000.8,   64.4, -999.0
21-02-2022, 00:09:27,    287,    4.7,    2.6,   0.00,   0.00, 1000.7,   64.3, -999.0
21-02-2022, 00:09:37,    280,    2.6,    2.6,   0.00,   0.00, 1000.7,   64.4, -999.0
21-02-2022, 00:09:47,    268,    6.7,    2.5,   0.00,   0.00, 1000.7,   64.3, -999.0
21-02-2022, 00:09:57,    257,    4.3,    2.6,   0.00,   0.00, 1000.8,   64.4, -999.0
21-02-2022, 00:10:07,    258,    1.2,    2.6,   0.00,   0.00, 1000.8,   64.5, -999.0
21-02-2022, 00:10:17,    246,    0.3,    2.5,   0.00,   0.00, 1000.7,   64.4, -999.0
21-02-2022, 00:10:27,    250,    1.5,    2.6,   0.00,   0.00, 1000.8,   64.5, -999.0
21-02-2022, 00:10:37,    243,    1.8,    2.6,   0.00,   0.00, 1000.8,   64.6, -999.0
21-02-2022, 00:10:47,    231,    3.9,    2.6,   0.00,   0.00, 1000.8,   64.7, -999.0
21-02-2022, 00:10:57,    268,    5.2,    2.6,   0.00,   0.00, 1000.8,   64.7, -999.0
21-02-2022, 00:11:06,    265,    5.0,    2.6,   0.00,   0.00, 1000.8,   64.7, -999.0
21-02-2022, 00:11:17,    261,    6.4,    2.6,   0.00,   0.00, 1000.8,   64.6, -999.0
21-02-2022, 00:11:27,    220,    5.1,    2.6,   0.00,   0.00, 1000.7,   64.6, -999.0
21-02-2022, 00:11:36,    274,    4.0,    2.6,   0.00,   0.00, 1000.7,   64.6, -999.0
21-02-2022, 00:11:46,    243,    2.4,    2.6,   0.00,   0.00, 1000.8,   64.6, -999.0
21-02-2022, 00:11:57,    264,    6.0,    2.6,   0.00,   0.00, 1000.8,   64.6, -999.0
21-02-2022, 00:12:06,    284,    5.7,    2.6,   0.00,   0.00, 1000.7,   64.5, -999.0
21-02-2022, 00:12:16,    259,    1.5,    2.6,   0.00,   0.00, 1000.7,   64.2, -999.0
21-02-2022, 00:12:26,    209,    6.1,    2.7,   0.00,   0.00, 1000.7,   64.4, -999.0
21-02-2022, 00:12:36,    267,    5.4,    2.6,   0.00,   0.00, 1000.7,   64.3, -999.0
21-02-2022, 00:12:46,    246,    4.9,    2.6,   0.00,   0.00, 1000.6,   64.2, -999.0
21-02-2022, 00:12:56,    250,    5.7,    2.7,   0.00,   0.00, 1000.7,   64.3, -999.0
21-02-2022, 00:13:06,    306,    2.6,    2.7,   0.00,   0.00, 1000.7,   64.3, -999.0
21-02-2022, 00:13:16,    225,    1.4,    2.6,   0.00,   0.00, 1000.6,   64.2, -999.0
21-02-2022, 00:13:26,    239,    4.2,    2.7,   0.00,   0.00, 1000.6,   64.3, -999.0
21-02-2022, 00:13:36,    261,    2.0,    2.7,   0.00,   0.00, 1000.7,   64.4, -999.0
21-02-2022, 00:13:46,    238,    4.8,    2.6,   0.00,   0.00, 1000.7,   64.5, -999.0
21-02-2022, 00:13:56,    232,    5.2,    2.6,   0.00,   0.00, 1000.7,   64.4, -999.0
21-02-2022, 00:14:06,    279,    4.5,    2.6,   0.00,   0.00, 1000.7,   64.3, -999.0
21-02-2022, 00:14:15,    245,    6.7,    2.6,   0.00,   0.00, 1000.8,   64.4, -999.0
21-02-2022, 00:14:26,    253,    5.3,    2.7,   0.00,   0.00, 1000.7,   64.4, -999.0
21-02-2022, 00:14:36,    237,    6.6,    2.7,   0.00,   0.00, 1000.7,   64.3, -999.0
21-02-2022, 00:14:45,    253,    5.4,    2.7,   0.00,   0.00, 1000.7,   64.4, -999.0
21-02-2022, 00:14:56,    247,    5.0,    2.7,   0.00,   0.00, 1000.7,   64.4, -999.0
21-02-2022, 00:15:06,    237,    3.4,    2.6,   0.00,   0.00, 1000.6,   64.2, -999.0
21-02-2022, 00:15:15,    254,    2.3,    2.6,   0.00,   0.00, 1000.6,   64.2, -999.0
21-02-2022, 00:15:25,    246,    1.8,    2.6,   0.00,   0.00, 1000.6,   64.3, -999.0
21-02-2022, 00:15:36,    295,    3.7,    2.6,   0.00,   0.00, 1000.6,   64.2, -999.0
21-02-2022, 00:15:45,    256,    2.7,    2.5,   0.00,   0.00, 1000.7,   64.3, -999.0
21-02-2022, 00:15:55,    240,    4.2,    2.6,   0.00,   0.00, 1000.8,   64.4, -999.0
21-02-2022, 00:16:05,    228,    3.7,    2.6,   0.00,   0.00, 1000.7,   64.4, -999.0
21-02-2022, 00:16:15,    238,    2.3,    2.6,   0.00,   0.00, 1000.7,   64.4, -999.0
21-02-2022, 00:16:25,    219,    1.1,    2.6,   0.00,   0.00, 1000.7,   64.5, -999.0
21-02-2022, 00:16:35,    226,    4.1,    2.6,   0.00,   0.00, 1000.8,   64.7, -999.0
21-02-2022, 00:16:45,    224,    3.5,    2.7,   0.00,   0.00, 1000.8,   64.7, -999.0
21-02-2022, 00:16:55,    279,    4.3,    2.6,   0.00,   0.00, 1000.8,   64.6, -999.0
21-02-2022, 00:17:05,    251,    6.7,    2.5,   0.00,   0.00, 1000.8,   64.7, -999.0
21-02-2022, 00:17:15,    256,    6.5,    2.6,   0.00,   0.00, 1000.8,   64.5, -999.0
21-02-2022, 00:17:25,    261,    5.6,    2.6,   0.00,   0.00, 1000.7,   64.5, -999.0
21-02-2022, 00:17:35,    256,    4.2,    2.6,   0.00,   0.00, 1000.8,   64.4, -999.0
21-02-2022, 00:17:45,    249,    3.1,    2.6,   0.00,   0.00, 1000.8,   64.4, -999.0
21-02-2022, 00:17:55,    279,    5.9,    2.6,   0.00,   0.00, 1000.8,   64.4, -999.0
21-02-2022, 00:18:05,    233,    2.5,    2.5,   0.00,   0.00, 1000.8,   64.5, -999.0
21-02-2022, 00:18:15,    232,    0.0,    2.5,   0.00,   0.00, 1000.6,   64.1, -999.0
21-02-2022, 00:18:24,    256,    2.0,    2.6,   0.00,   0.00, 1000.8,   64.3, -999.0
21-02-2022, 00:18:34,    259,    1.3,    2.6,   0.00,   0.00, 1000.8,   64.3, -999.0
21-02-2022, 00:18:45,    243,    3.5,    2.6,   0.00,   0.00, 1000.8,   64.4, -999.0
21-02-2022, 00:18:54,    252,    2.1,    2.6,   0.00,   0.00, 1000.8,   64.5, -999.0
21-02-2022, 00:19:04,    254,    4.8,    2.6,   0.00,   0.00, 1000.8,   64.4, -999.0
21-02-2022, 00:19:15,    209,    1.5,    2.6,   0.00,   0.00, 1000.8,   64.5, -999.0
21-02-2022, 00:19:24,    258,    1.5,    2.6,   0.00,   0.00, 1000.9,   64.5, -999.0
21-02-2022, 00:19:34,    255,    6.1,    2.6,   0.00,   0.00, 1000.8,   64.4, -999.0
21-02-2022, 00:19:44,    223,    3.6,    2.5,   0.00,   0.00, 1000.9,   64.2, -999.0
21-02-2022, 00:19:54,    262,    3.9,    2.6,   0.00,   0.00, 1000.9,   64.3, -999.0
21-02-2022, 00:20:04,    239,    6.4,    2.6,   0.00,   0.00, 1001.0,   64.1, -999.0
21-02-2022, 00:20:14,    282,    4.4,    2.6,   0.00,   0.00, 1000.9,   64.2, -999.0
21-02-2022, 00:20:24,    270,    4.9,    2.5,   0.00,   0.00, 1000.9,   64.2, -999.0
21-02-2022, 00:20:34,    294,    4.8,    2.6,   0.00,   0.00, 1000.9,   64.2, -999.0
21-02-2022, 00:20:44,    272,    3.3,    2.5,   0.00,   0.00, 1000.9,   64.1, -999.0
21-02-2022, 00:20:54,    228,    6.0,    2.5,   0.00,   0.00, 1000.9,   64.2, -999.0
21-02-2022, 00:21:04,    262,    3.8,    2.6,   0.00,   0.00, 1001.0,   64.1, -999.0
21-02-2022, 00:21:14,    232,    5.4,    2.6,   0.00,   0.00, 1000.9,   64.2, -999.0
21-02-2022, 00:21:24,    296,    2.9,    2.6,   0.00,   0.00, 1001.0,   64.1, -999.0
21-02-2022, 00:21:34,    310,    4.1,    2.6,   0.00,   0.00, 1001.0,   64.1, -999.0
21-02-2022, 00:21:44,    283,    3.6,    2.6,   0.00,   0.00, 1001.0,   64.1, -999.0
21-02-2022, 00:21:54,    262,    5.0,    2.6,   0.00,   0.00, 1001.0,   64.1, -999.0
21-02-2022, 00:22:04,    216,    2.8,    2.6,   0.00,   0.00, 1001.1,   64.2, -999.0
21-02-2022, 00:22:13,    208,    4.3,    2.6,   0.00,   0.00, 1001.1,   64.1, -999.0
21-02-2022, 00:22:24,    242,    3.5,    2.6,   0.00,   0.00, 1001.1,   64.2, -999.0
21-02-2022, 00:22:33,    243,    0.5,    2.6,   0.00,   0.00, 1001.1,   63.9, -999.0
21-02-2022, 00:22:43,    296,    0.6,    2.5,   0.00,   0.00, 1001.1,   64.0, -999.0
21-02-2022, 00:22:53,    265,    2.6,    2.6,   0.00,   0.00, 1001.2,   64.2, -999.0
21-02-2022, 00:23:03,    278,    3.2,    2.5,   0.00,   0.00, 1001.2,   64.2, -999.0
21-02-2022, 00:23:13,    256,    2.9,    2.5,   0.00,   0.00, 1001.2,   64.2, -999.0
21-02-2022, 00:23:23,    230,    4.3,    2.5,   0.00,   0.00, 1001.2,   64.2, -999.0
21-02-2022, 00:23:33,    261,    3.8,    2.5,   0.00,   0.00, 1001.2,   64.3, -999.0
21-02-2022, 00:23:43,    241,    4.4,    2.5,   0.00,   0.00, 1001.2,   64.4, -999.0
21-02-2022, 00:23:53,    241,    3.8,    2.5,   0.00,   0.00, 1001.2,   64.4, -999.0
21-02-2022, 00:24:03,    245,    4.0,    2.6,   0.00,   0.00, 1001.2,   64.5, -999.0
21-02-2022, 00:24:13,    252,    3.1,    2.5,   0.00,   0.00, 1001.2,   64.4, -999.0
21-02-2022, 00:24:23,    277,    2.3,    2.5,   0.00,   0.00, 1001.2,   64.4, -999.0
21-02-2022, 00:24:33,    261,    1.7,    2.5,   0.00,   0.00, 1001.2,   64.5, -999.0
21-02-2022, 00:24:43,    255,    3.5,    2.5,   0.00,   0.00, 1001.2,   64.5, -999.0
21-02-2022, 00:24:53,    263,    4.3,    2.6,   0.00,   0.00, 1001.2,   64.5, -999.0
21-02-2022, 00:25:03,    275,    4.1,    2.5,   0.00,   0.00, 1001.2,   64.6, -999.0
21-02-2022, 00:25:13,    270,    2.0,    2.6,   0.00,   0.00, 1001.2,   64.6, -999.0
21-02-2022, 00:25:22,    296,    1.9,    2.5,   0.00,   0.00, 1001.2,   64.6, -999.0
21-02-2022, 00:25:33,    222,    2.2,    2.5,   0.00,   0.00, 1001.1,   64.6, -999.0
21-02-2022, 00:25:43,    242,    4.1,    2.6,   0.00,   0.00, 1001.2,   64.6, -999.0
21-02-2022, 00:25:52,    270,    4.7,    2.5,   0.00,   0.00, 1001.2,   64.7, -999.0
21-02-2022, 00:26:03,    244,    4.5,    2.5,   0.00,   0.00, 1001.2,   64.7, -999.0
21-02-2022, 00:26:13,    290,    5.9,    2.6,   0.00,   0.00, 1001.2,   64.7, -999.0
21-02-2022, 00:26:22,    279,    6.2,    2.5,   0.00,   0.00, 1001.1,   64.6, -999.0
21-02-2022, 00:26:32,    262,    3.3,    2.6,   0.00,   0.00, 1001.2,   64.6, -999.0
21-02-2022, 00:26:42,    253,    2.6,    2.6,   0.00,   0.00, 1001.2,   64.5, -999.0
21-02-2022, 00:26:52,    263,    4.4,    2.6,   0.00,   0.00, 1001.2,   64.6, -999.0
21-02-2022, 00:27:02,    243,    3.2,    2.5,   0.00,   0.00, 1001.2,   64.7, -999.0
21-02-2022, 00:27:12,    244,    3.4,    2.5,   0.00,   0.00, 1001.2,   64.7, -999.0
21-02-2022, 00:27:22,    250,    4.1,    2.5,   0.00,   0.00, 1001.2,   64.7, -999.0
21-02-2022, 00:27:32,    228,    3.9,    2.6,   0.00,   0.00, 1001.2,   64.7, -999.0
21-02-2022, 00:27:42,    235,    6.0,    2.6,   0.00,   0.00, 1001.2,   64.7, -999.0
21-02-2022, 00:27:52,    235,    3.7,    2.5,   0.00,   0.00, 1001.2,   64.7, -999.0
21-02-2022, 00:28:02,    314,    3.9,    2.6,   0.00,   0.00, 1001.2,   64.8, -999.0
21-02-2022, 00:28:12,    291,    3.0,    2.5,   0.00,   0.00, 1001.2,   64.9, -999.0
21-02-2022, 00:28:22,    274,    5.4,    2.6,   0.00,   0.00, 1001.2,   64.9, -999.0
21-02-2022, 00:28:32,    263,    5.2,    2.6,   0.00,   0.00, 1001.2,   64.9, -999.0
21-02-2022, 00:28:42,    286,    5.1,    2.6,   0.00,   0.00, 1001.2,   64.8, -999.0
21-02-2022, 00:28:52,    270,    8.8,    2.5,   0.00,   0.00, 1001.2,   64.9, -999.0
21-02-2022, 00:29:01,    278,    8.1,    2.5,   0.00,   0.00, 1001.2,   64.9, -999.0
21-02-2022, 00:29:12,    285,    6.3,    2.5,   0.00,   0.00, 1001.2,   64.9, -999.0
21-02-2022, 00:29:22,    264,    5.5,    2.6,   0.00,   0.00, 1001.2,   65.0, -999.0
21-02-2022, 00:29:31,    241,    3.2,    2.6,   0.00,   0.00, 1001.2,   64.9, -999.0
21-02-2022, 00:29:41,    249,    3.5,    2.5,   0.00,   0.00, 1001.2,   65.0, -999.0
21-02-2022, 00:29:52,    267,    3.1,    2.6,   0.00,   0.00, 1001.2,   65.0, -999.0
21-02-2022, 00:30:01,    283,    3.1,    2.5,   0.00,   0.00, 1001.2,   65.1, -999.0
21-02-2022, 00:30:11,    291,    2.7,    2.6,   0.00,   0.00, 1001.2,   65.1, -999.0
21-02-2022, 00:30:21,    257,    8.6,    2.5,   0.00,   0.00, 1001.2,   65.1, -999.0
21-02-2022, 00:30:31,    299,    6.3,    2.5,   0.00,   0.00, 1001.2,   65.1, -999.0
21-02-2022, 00:30:41,    262,    5.5,    2.5,   0.00,   0.00, 1001.2,   65.2, -999.0
21-02-2022, 00:30:51,    261,    1.8,    2.5,   0.00,   0.00, 1001.2,   65.3, -999.0
21-02-2022, 00:31:01,    256,    3.6,    2.5,   0.00,   0.00, 1001.2,   65.4, -999.0
21-02-2022, 00:31:11,    280,    4.1,    2.5,   0.00,   0.00, 1001.3,   65.4, -999.0
21-02-2022, 00:31:21,    268,    2.5,    2.5,   0.00,   0.00, 1001.2,   65.5, -999.0
21-02-2022, 00:31:31,    235,    1.2,    2.5,   0.00,   0.00, 1001.2,   65.4, -999.0
21-02-2022, 00:31:41,    276,    2.8,    2.5,   0.00,   0.00, 1001.3,   65.5, -999.0
21-02-2022, 00:31:51,    291,    2.7,    2.5,   0.00,   0.00, 1001.2,   65.6, -999.0
21-02-2022, 00:32:01,    234,    1.9,    2.5,   0.00,   0.00, 1001.3,   65.6, -999.0
21-02-2022, 00:32:11,    237,    2.1,    2.5,   0.00,   0.00, 1001.2,   65.8, -999.0
21-02-2022, 00:32:21,    300,    1.8,    2.5,   0.00,   0.00, 1001.2,   65.7, -999.0
21-02-2022, 00:32:31,    273,    4.2,    2.5,   0.00,   0.00, 1001.2,   65.8, -999.0
21-02-2022, 00:32:40,    235,    3.5,    2.4,   0.00,   0.00, 1001.3,   65.9, -999.0
21-02-2022, 00:32:51,    271,    2.0,    2.4,   0.00,   0.00, 1001.3,   65.9, -999.0
21-02-2022, 00:33:01,    289,    4.2,    2.4,   0.00,   0.00, 1001.3,   66.0, -999.0
21-02-2022, 00:33:10,    214,    9.4,    2.5,   0.00,   0.00, 1001.4,   66.1, -999.0
21-02-2022, 00:33:20,    293,    8.3,    2.5,   0.00,   0.00, 1001.4,   66.0, -999.0
21-02-2022, 00:33:31,    266,    7.7,    2.5,   0.00,   0.00, 1001.4,   66.0, -999.0
21-02-2022, 00:33:40,    299,    5.8,    2.5,   0.00,   0.00, 1001.3,   65.8, -999.0
21-02-2022, 00:33:50,    236,    4.4,    2.5,   0.00,   0.00, 1001.3,   65.7, -999.0
21-02-2022, 00:34:01,    281,    3.5,    2.5,   0.00,   0.00, 1001.4,   65.8, -999.0
21-02-2022, 00:34:10,    257,    7.4,    2.5,   0.00,   0.00, 1001.4,   65.8, -999.0
21-02-2022, 00:34:20,    276,    6.6,    2.5,   0.00,   0.00, 1001.4,   65.7, -999.0
21-02-2022, 00:34:30,    258,    6.0,    2.5,   0.00,   0.00, 1001.4,   65.7, -999.0
21-02-2022, 00:34:40,    255,    5.4,    2.5,   0.00,   0.00, 1001.4,   65.8, -999.0
21-02-2022, 00:34:50,    280,    4.3,    2.5,   0.00,   0.00, 1001.4,   65.6, -999.0
21-02-2022, 00:35:00,    288,    7.6,    2.4,   0.00,   0.00, 1001.3,   65.7, -999.0
21-02-2022, 00:35:10,    276,    7.5,    2.5,   0.00,   0.00, 1001.4,   65.7, -999.0
21-02-2022, 00:35:20,    247,    7.3,    2.5,   0.00,   0.00, 1001.3,   65.8, -999.0
21-02-2022, 00:35:30,    231,    5.4,    2.5,   0.00,   0.00, 1001.3,   65.7, -999.0
21-02-2022, 00:35:40,    244,    5.4,    2.3,   0.00,   0.00, 1001.4,   65.8, -999.0
21-02-2022, 00:35:50,    252,    7.1,    2.6,   0.00,   0.00, 1001.4,   65.8, -999.0
21-02-2022, 00:36:00,    279,    4.5,    2.4,   0.00,   0.00, 1001.3,   65.9, -999.0
21-02-2022, 00:36:10,    270,    6.0,    2.5,   0.00,   0.00, 1001.3,   66.0, -999.0
21-02-2022, 00:36:19,    271,    6.3,    2.5,   0.00,   0.00, 1001.4,   65.9, -999.0
21-02-2022, 00:36:30,    261,    7.5,    2.4,   0.00,   0.00, 1001.4,   66.0, -999.0
21-02-2022, 00:36:40,    264,    7.8,    2.4,   0.00,   0.00, 1001.4,   66.1, -999.0
21-02-2022, 00:36:49,    241,    5.1,    2.4,   0.00,   0.00, 1001.3,   66.0, -999.0
21-02-2022, 00:36:59,    295,    3.6,    2.4,   0.00,   0.00, 1001.3,   66.2, -999.0
21-02-2022, 00:37:10,    305,    9.4,    2.4,   0.00,   0.00, 1001.3,   66.1, -999.0
21-02-2022, 00:37:19,    252,    3.7,    2.4,   0.00,   0.00, 1001.3,   66.2, -999.0
21-02-2022, 00:37:29,    266,    2.3,    2.4,   0.00,   0.00, 1001.3,   66.3, -999.0
21-02-2022, 00:37:39,    262,    5.9,    2.4,   0.00,   0.00, 1001.2,   66.3, -999.0
21-02-2022, 00:37:49,    236,    4.1,    2.4,   0.00,   0.00, 1001.3,   66.3, -999.0
21-02-2022, 00:37:59,    256,    2.8,    2.4,   0.00,   0.00, 1001.2,   66.5, -999.0
21-02-2022, 00:38:09,    243,    6.3,    2.3,   0.00,   0.00, 1001.2,   66.5, -999.0
21-02-2022, 00:38:19,    239,    4.4,    2.4,   0.00,   0.00, 1001.2,   66.6, -999.0
21-02-2022, 00:38:29,    291,    2.8,    2.3,   0.00,   0.00, 1001.2,   66.5, -999.0
21-02-2022, 00:38:39,    257,    2.4,    2.3,   0.00,   0.00, 1001.3,   66.5, -999.0
21-02-2022, 00:38:49,    249,    7.6,    2.4,   0.00,   0.00, 1001.3,   66.5, -999.0
21-02-2022, 00:38:59,    306,    8.1,    2.3,   0.00,   0.00, 1001.2,   66.5, -999.0
21-02-2022, 00:39:09,    245,    4.8,    2.4,   0.00,   0.00, 1001.2,   66.5, -999.0
21-02-2022, 00:39:19,    266,    3.6,    2.4,   0.00,   0.00, 1001.2,   66.4, -999.0
21-02-2022, 00:39:29,    258,    6.3,    2.3,   0.00,   0.00, 1001.2,   66.4, -999.0
21-02-2022, 00:39:39,    274,    6.1,    2.2,   0.00,   0.00, 1001.2,   66.4, -999.0
21-02-2022, 00:39:49,    249,    5.9,    2.3,   0.00,   0.00, 1001.2,   66.5, -999.0
21-02-2022, 00:39:59,    296,    5.1,    2.3,   0.00,   0.00, 1001.2,   66.5, -999.0
21-02-2022, 00:40:08,    275,    5.8,    2.3,   0.00,   0.00, 1001.2,   66.6, -999.0
21-02-2022, 00:40:19,    260,    3.4,    2.2,   0.00,   0.00, 1001.2,   66.6, -999.0
21-02-2022, 00:40:28,    288,    5.1,    2.3,   0.00,   0.00, 1001.2,   66.6, -999.0
21-02-2022, 00:40:38,    250,    2.9,    2.3,   0.00,   0.00, 1001.2,   66.6, -999.0
21-02-2022, 00:40:49,    261,    5.8,    2.3,   0.00,   0.00, 1001.2,   66.7, -999.0
21-02-2022, 00:40:58,    234,    6.5,    2.3,   0.00,   0.00, 1001.2,   66.7, -999.0
21-02-2022, 00:41:08,    282,    5.4,    2.3,   0.00,   0.00, 1001.2,   66.8, -999.0
21-02-2022, 00:41:18,    266,    6.7,    2.3,   0.00,   0.00, 1001.2,   66.7, -999.0
21-02-2022, 00:41:28,    291,    4.7,    2.4,   0.00,   0.00, 1001.2,   66.6, -999.0
21-02-2022, 00:41:38,    272,    5.5,    2.3,   0.00,   0.00, 1001.2,   66.7, -999.0
21-02-2022, 00:41:48,    286,    4.2,    2.3,   0.00,   0.00, 1001.2,   66.7, -999.0
21-02-2022, 00:41:58,    253,    2.9,    2.3,   0.00,   0.00, 1001.1,   66.9, -999.0
21-02-2022, 00:42:08,    299,    2.5,    2.2,   0.00,   0.00, 1001.2,   66.9, -999.0
21-02-2022, 00:42:18,    282,    3.6,    2.2,   0.00,   0.00, 1001.2,   66.9, -999.0
21-02-2022, 00:42:28,    278,    2.5,    2.2,   0.00,   0.00, 1001.2,   66.9, -999.0
21-02-2022, 00:42:38,    272,    4.9,    2.2,   0.00,   0.00, 1001.2,   67.0, -999.0
21-02-2022, 00:42:48,    180,    2.1,    2.2,   0.00,   0.00, 1001.2,   67.0, -999.0
21-02-2022, 00:42:58,    264,    4.5,    2.2,   0.00,   0.00, 1001.2,   67.1, -999.0
21-02-2022, 00:43:08,    245,    6.8,    2.3,   0.00,   0.00, 1001.2,   67.3, -999.0
21-02-2022, 00:43:18,    265,    4.8,    2.3,   0.00,   0.00, 1001.1,   67.2, -999.0
21-02-2022, 00:43:28,    269,    7.1,    2.2,   0.00,   0.00, 1001.2,   67.2, -999.0
21-02-2022, 00:43:38,    254,    6.5,    2.2,   0.00,   0.00, 1001.2,   67.1, -999.0
21-02-2022, 00:43:47,    262,    5.5,    2.2,   0.00,   0.00, 1001.2,   67.1, -999.0
21-02-2022, 00:43:58,    258,    4.6,    2.3,   0.00,   0.00, 1001.2,   67.1, -999.0
21-02-2022, 00:44:07,    268,    1.7,    2.2,   0.00,   0.00, 1001.2,   67.2, -999.0
21-02-2022, 00:44:17,    282,    1.5,    2.1,   0.00,   0.00, 1001.2,   67.1, -999.0
21-02-2022, 00:44:28,    181,    1.9,    2.2,   0.00,   0.00, 1001.2,   67.2, -999.0
21-02-2022, 00:44:37,    223,    3.3,    2.2,   0.00,   0.00, 1001.2,   67.3, -999.0
21-02-2022, 00:44:47,    288,    5.6,    2.2,   0.00,   0.00, 1001.2,   67.3, -999.0
21-02-2022, 00:44:57,    239,    5.3,    2.2,   0.00,   0.00, 1001.2,   67.5, -999.0
21-02-2022, 00:45:07,    264,    4.4,    2.2,   0.00,   0.00, 1001.2,   67.6, -999.0
21-02-2022, 00:45:17,    279,    1.6,    2.2,   0.00,   0.00, 1001.2,   67.5, -999.0
21-02-2022, 00:45:27,    270,    5.1,    2.3,   0.00,   0.00, 1001.2,   67.5, -999.0
21-02-2022, 00:45:37,    262,    5.5,    2.2,   0.00,   0.00, 1001.2,   67.5, -999.0
21-02-2022, 00:45:47,    274,    4.0,    2.2,   0.00,   0.00, 1001.2,   67.5, -999.0
21-02-2022, 00:45:57,    223,    4.1,    2.2,   0.00,   0.00, 1001.2,   67.4, -999.0
21-02-2022, 00:46:07,    262,    6.0,    2.2,   0.00,   0.00, 1001.2,   67.5, -999.0
21-02-2022, 00:46:17,    285,    4.5,    2.3,   0.00,   0.00, 1001.2,   67.4, -999.0
21-02-2022, 00:46:27,    240,    2.7,    2.2,   0.00,   0.00, 1001.2,   67.3, -999.0
21-02-2022, 00:46:37,    317,    1.8,    2.2,   0.00,   0.00, 1001.2,   67.3, -999.0